Palermo current weather conditions

sailwx.info

Wind from 050 at 10 knots

Air temperature 18.0° C
Dewpoint 16.0° C

Last reported at 2015-Apr-18 17:20 UTC.
Time now 2015-Apr-18 19:23 UTC

Location: N 38°10' E 013°05'.
View on Google Maps.

See reports from other nearby stations

  
Tides and Currents Weather Stations Pressure Air Temp Water Temp Dewpoint Dewpoint Depression Visibility Wind Speed Wind Dir Waves Ship Positions
date/time (UTC)wind fromknots sea level pressurealtimeterstation pressurevisibilityair tempwater tempwave heightnotes
2015-Apr-18 18:20 260 3 17.0
2015-Apr-18 17:20 050 10 18.0
2015-Apr-18 16:50 060 12 19.0
2015-Apr-18 16:20 060 16 19.0
2015-Apr-18 15:50 040 15 19.0
2015-Apr-18 15:20 040 12 20.0
2015-Apr-18 14:50 050 11 20.0
2015-Apr-18 14:20 040 12 19.0
2015-Apr-18 13:50 030 12 19.0
2015-Apr-18 13:20 040 10 19.0
2015-Apr-18 12:50 030 10 18.0
2015-Apr-18 12:20 030 10 18.0
2015-Apr-18 11:50 030 8 18.0
2015-Apr-18 11:20 030 10 17.0
2015-Apr-18 10:50 020 8 17.0
2015-Apr-18 10:20 020 8 4.917.0
2015-Apr-18 09:50 010 7 4.916.0
2015-Apr-18 09:20 340 7 5.417.0
2015-Apr-18 08:50 340 6 17.0
2015-Apr-18 08:20 340 7 17.0
2015-Apr-18 07:50 350 7 17.0
2015-Apr-18 07:20 020 8 17.0
2015-Apr-18 06:50 040 10 17.0
2015-Apr-18 06:20 040 9 17.0
2015-Apr-18 05:50 060 9 16.0
2015-Apr-18 05:20 040 4 15.0
2015-Apr-18 04:50 050 3 15.0
2015-Apr-18 04:20 200 5 15.0
2015-Apr-18 03:50 160 6 15.0
2015-Apr-18 03:20 170 7 15.0
2015-Apr-18 02:50 190 6 14.0
2015-Apr-18 02:20 240 9 16.0
2015-Apr-18 01:50 230 10 16.0
2015-Apr-18 01:20 220 6 18.0
2015-Apr-18 00:50 190 6 19.0
2015-Apr-18 00:20 180 8 17.0
2015-Apr-17 23:50 180 9 16.0
2015-Apr-17 23:20 190 10 17.0
2015-Apr-17 22:50 190 9 16.0
2015-Apr-17 22:20 180 8 16.0
2015-Apr-17 21:50 220 7 17.0
2015-Apr-17 21:20 240 6 18.0
2015-Apr-17 20:50 240 9 18.0
2015-Apr-17 20:20 250 13 18.0
2015-Apr-17 19:50 290 10 17.0
2015-Apr-17 19:20 280 11 17.0
2015-Apr-17 18:50 280 13 17.0
2015-Apr-17 18:20 280 12 17.0
2015-Apr-17 17:50 270 9 22.0
2015-Apr-17 17:20 200 11 24.0
2015-Apr-17 16:50 190 10 25.0
2015-Apr-17 16:20 200 13 25.0
2015-Apr-17 15:50 210 17 26.0
2015-Apr-17 15:20 200 16 26.0
2015-Apr-17 14:50 200 17 27.0
2015-Apr-17 14:20 200 17 27.0
2015-Apr-17 13:50 210 17 27.0
2015-Apr-17 13:20 200 19 27.0
2015-Apr-17 12:50 200 20 27.0
2015-Apr-17 12:20 200 20 27.0
2015-Apr-17 11:50 190 20 27.0
2015-Apr-17 11:20 200 20 gusting 31 27.0
2015-Apr-17 10:50 200 22 26.0
2015-Apr-17 10:20 210 20 26.0
2015-Apr-17 09:50 200 20 26.0
2015-Apr-17 09:20 200 19 25.0
2015-Apr-17 08:50 210 14 25.0
2015-Apr-17 08:20 210 10 24.0
2015-Apr-17 07:50 200 16 24.0
2015-Apr-17 07:20 090 2 20.0
2015-Apr-17 06:50 040 4 18.0
2015-Apr-17 06:20 130 3 19.0
2015-Apr-17 05:50 110 4 17.0
2015-Apr-17 05:20 040 7 16.0
2015-Apr-17 04:50 170 4 16.0
2015-Apr-17 04:20 280 1 15.0
2015-Apr-17 03:50 240 2 15.0
2015-Apr-17 03:20 190 2 16.0
2015-Apr-17 02:50 040 2 16.0
2015-Apr-17 02:20 360 6 16.0
2015-Apr-17 01:50 060 3 15.0
2015-Apr-17 01:20 190 4 14.0
2015-Apr-17 00:50 340 2 15.0
2015-Apr-17 00:20 070 3 15.0
2015-Apr-16 23:50 050 5 15.0
2015-Apr-16 23:20 070 3 14.0
2015-Apr-16 22:50 160 1 15.0
2015-Apr-16 22:20 080 3 17.0
2015-Apr-16 21:50 120 5 15.0
2015-Apr-16 21:20 170 3 15.0
2015-Apr-16 20:50 210 3 16.0
2015-Apr-16 20:20 250 1 16.0
2015-Apr-16 19:50 350 4 17.0
2015-Apr-16 19:20 040 2 16.0